Time,TemperatureF,DewpointF,PressureIn,WindDirection,WindDirectionDegrees,WindSpeedMPH,WindSpeedGustMPH,Humidity,HourlyPrecipIn,Conditions,Clouds,dailyrainin,SoftwareType,DateUTC
2013-08-13 00:10:00,75.7,73.0,29.92,SE,142,0.0,0.0,91,0.00,,,0.00,weatherlink.com 1.10,2013-08-13 05:10:00,
2013-08-13 00:25:00,75.6,73.0,29.91,SE,141,0.0,0.0,91,0.00,,,0.00,weatherlink.com 1.10,2013-08-13 05:25:00,
2013-08-13 00:40:00,75.5,73.0,29.91,SE,141,0.0,0.0,91,0.00,,,0.00,weatherlink.com 1.10,2013-08-13 05:40:00,
2013-08-13 00:55:00,75.4,73.0,29.92,SE,142,0.0,1.0,91,0.00,,,0.00,weatherlink.com 1.10,2013-08-13 05:55:00,
2013-08-13 01:10:00,75.3,73.0,29.94,SE,141,0.0,0.0,91,0.00,,,0.00,weatherlink.com 1.10,2013-08-13 06:10:00,
2013-08-13 01:25:00,75.5,73.0,29.95,SE,142,0.0,0.0,92,0.02,,,0.02,weatherlink.com 1.10,2013-08-13 06:25:00,
2013-08-13 01:40:00,75.4,73.0,29.96,WSW,244,0.0,0.0,92,0.06,,,0.06,weatherlink.com 1.10,2013-08-13 06:40:00,
2013-08-13 01:55:00,75.2,73.0,29.96,SSW,210,0.0,3.0,93,0.09,,,0.09,weatherlink.com 1.10,2013-08-13 06:55:00,
2013-08-13 02:10:00,75.0,73.0,29.95,SSE,154,0.0,1.0,93,0.10,,,0.10,weatherlink.com 1.10,2013-08-13 07:10:00,
2013-08-13 02:25:00,74.8,73.0,29.95,SSE,164,0.0,0.0,93,0.08,,,0.10,weatherlink.com 1.10,2013-08-13 07:25:00,
2013-08-13 02:40:00,74.6,73.0,29.96,SSE,164,0.0,0.0,94,0.04,,,0.10,weatherlink.com 1.10,2013-08-13 07:40:00,
2013-08-13 02:55:00,74.3,73.0,29.95,SSE,164,0.0,0.0,94,0.04,,,0.13,weatherlink.com 1.10,2013-08-13 07:55:00,
2013-08-13 03:10:00,73.8,72.0,29.96,SSE,164,0.0,0.0,94,0.04,,,0.14,weatherlink.com 1.10,2013-08-13 08:10:00,
2013-08-13 03:25:00,73.0,71.0,29.95,SSE,164,0.0,0.0,93,0.04,,,0.14,weatherlink.com 1.10,2013-08-13 08:25:00,
2013-08-13 03:40:00,72.7,71.0,29.93,SSE,164,0.0,0.0,94,0.04,,,0.14,weatherlink.com 1.10,2013-08-13 08:40:00,
2013-08-13 03:55:00,72.4,71.0,29.92,SSE,165,0.0,1.0,94,0.01,,,0.14,weatherlink.com 1.10,2013-08-13 08:55:00,
2013-08-13 04:10:00,72.2,70.0,29.92,SSE,165,0.0,0.0,94,0.00,,,0.14,weatherlink.com 1.10,2013-08-13 09:10:00,
2013-08-13 04:25:00,72.0,70.0,29.92,SSE,164,0.0,0.0,94,0.00,,,0.14,weatherlink.com 1.10,2013-08-13 09:25:00,
2013-08-13 04:40:00,72.0,70.0,29.92,SSE,164,0.0,0.0,94,0.00,,,0.14,weatherlink.com 1.10,2013-08-13 09:40:00,
2013-08-13 04:55:00,72.1,70.0,29.93,SSE,164,0.0,0.0,94,0.00,,,0.14,weatherlink.com 1.10,2013-08-13 09:55:00,
2013-08-13 05:10:00,72.1,70.0,29.95,SSE,164,0.0,0.0,94,0.00,,,0.14,weatherlink.com 1.10,2013-08-13 10:10:00,
2013-08-13 05:25:00,72.1,70.0,29.95,SSE,165,0.0,1.0,94,0.00,,,0.14,weatherlink.com 1.10,2013-08-13 10:25:00,
2013-08-13 05:40:00,72.0,71.0,29.96,SSW,204,0.0,0.0,95,0.00,,,0.14,weatherlink.com 1.10,2013-08-13 10:40:00,
2013-08-13 05:55:00,71.9,71.0,29.96,SSW,211,0.0,4.0,95,0.00,,,0.14,weatherlink.com 1.10,2013-08-13 10:55:00,
2013-08-13 06:10:00,71.6,70.0,29.96,SSW,211,0.0,0.0,95,0.00,,,0.14,weatherlink.com 1.10,2013-08-13 11:10:00,
2013-08-13 06:25:00,71.5,70.0,29.95,SSW,211,0.0,0.0,95,0.00,,,0.14,weatherlink.com 1.10,2013-08-13 11:25:00,
2013-08-13 06:40:00,71.5,70.0,29.95,SSW,211,0.0,0.0,95,0.00,,,0.14,weatherlink.com 1.10,2013-08-13 11:40:00,
2013-08-13 06:55:00,71.6,70.0,29.95,SSW,211,0.0,0.0,95,0.00,,,0.14,weatherlink.com 1.10,2013-08-13 11:55:00,
2013-08-13 07:10:00,71.6,70.0,29.96,SSW,211,0.0,0.0,95,0.00,,,0.14,weatherlink.com 1.10,2013-08-13 12:10:00,
2013-08-13 07:25:00,71.7,70.0,29.96,SSW,211,0.0,0.0,95,0.00,,,0.14,weatherlink.com 1.10,2013-08-13 12:25:00,
2013-08-13 07:40:00,71.7,70.0,29.97,SSW,211,0.0,0.0,95,0.00,,,0.14,weatherlink.com 1.10,2013-08-13 12:40:00,
2013-08-13 07:55:00,71.7,70.0,29.97,SSW,211,0.0,0.0,95,0.00,,,0.14,weatherlink.com 1.10,2013-08-13 12:55:00,
2013-08-13 08:10:00,71.8,70.0,29.96,SSW,211,0.0,1.0,95,0.00,,,0.14,weatherlink.com 1.10,2013-08-13 13:10:00,
2013-08-13 08:25:00,71.8,71.0,29.97,South,186,0.0,0.0,96,0.00,,,0.14,weatherlink.com 1.10,2013-08-13 13:25:00,
2013-08-13 08:40:00,72.1,71.0,29.97,South,186,0.0,1.0,95,0.00,,,0.14,weatherlink.com 1.10,2013-08-13 13:40:00,
2013-08-13 08:55:00,72.1,71.0,29.97,South,184,0.0,1.0,95,0.00,,,0.14,weatherlink.com 1.10,2013-08-13 13:55:00,
2013-08-13 09:10:00,72.1,71.0,29.98,South,184,0.0,1.0,95,0.00,,,0.14,weatherlink.com 1.10,2013-08-13 14:10:00,
2013-08-13 09:40:00,73.1,72.0,29.97,SSW,196,0.0,1.0,95,0.00,,,0.14,weatherlink.com 1.10,2013-08-13 14:40:00,
2013-08-13 09:55:00,73.9,72.0,29.98,South,186,2.0,4.0,94,0.00,,,0.14,weatherlink.com 1.10,2013-08-13 14:55:00,
2013-08-13 10:10:00,75.1,71.0,29.98,South,186,0.0,4.0,88,0.00,,,0.14,weatherlink.com 1.10,2013-08-13 15:10:00,
2013-08-13 10:25:00,75.9,72.0,29.98,South,186,0.0,1.0,86,0.00,,,0.14,weatherlink.com 1.10,2013-08-13 15:25:00,
2013-08-13 10:41:00,77.2,71.0,29.99,South,182,0.0,2.0,82,0.00,,,0.14,weatherlink.com 1.10,2013-08-13 15:41:00,
2013-08-13 10:56:00,77.7,72.0,29.99,South,182,0.0,0.0,82,0.00,,,0.14,weatherlink.com 1.10,2013-08-13 15:56:00,
2013-08-13 11:11:00,78.4,73.0,29.99,South,182,0.0,0.0,82,0.00,,,0.14,weatherlink.com 1.10,2013-08-13 16:11:00,
2013-08-13 11:26:00,78.9,72.0,29.99,SE,141,0.0,5.0,80,0.00,,,0.14,weatherlink.com 1.10,2013-08-13 16:26:00,
2013-08-13 11:41:00,79.1,72.0,30.00,South,186,3.0,7.0,80,0.00,,,0.14,weatherlink.com 1.10,2013-08-13 16:41:00,
2013-08-13 11:56:00,78.9,73.0,30.00,South,183,3.0,8.0,81,0.00,,,0.14,weatherlink.com 1.10,2013-08-13 16:56:00,
2013-08-13 12:26:00,79.9,73.0,29.98,SSW,207,0.0,7.0,78,0.00,,,0.14,weatherlink.com 1.10,2013-08-13 17:26:00,
2013-08-13 12:41:00,80.1,72.0,29.98,SSW,196,0.0,5.0,76,0.00,,,0.14,weatherlink.com 1.10,2013-08-13 17:41:00,
2013-08-13 12:56:00,80.1,72.0,29.98,SSW,211,0.0,3.0,76,0.00,,,0.14,weatherlink.com 1.10,2013-08-13 17:56:00,
2013-08-13 13:11:00,80.4,72.0,29.97,South,174,0.0,0.0,76,0.00,,,0.14,weatherlink.com 1.10,2013-08-13 18:11:00,
2013-08-13 13:26:00,81.2,72.0,29.97,SSW,205,0.0,4.0,74,0.00,,,0.14,weatherlink.com 1.10,2013-08-13 18:26:00,
2013-08-13 13:41:00,81.8,72.0,29.97,SW,214,0.0,0.0,73,0.00,,,0.14,weatherlink.com 1.10,2013-08-13 18:41:00,
2013-08-13 13:56:00,81.8,73.0,29.96,SW,214,0.0,2.0,75,0.00,,,0.14,weatherlink.com 1.10,2013-08-13 18:56:00,
2013-08-13 14:11:00,81.8,72.0,29.96,South,185,0.0,0.0,73,0.00,,,0.14,weatherlink.com 1.10,2013-08-13 19:11:00,
2013-08-13 14:26:00,82.1,73.0,29.96,SSE,159,3.0,3.0,73,0.00,,,0.14,weatherlink.com 1.10,2013-08-13 19:26:00,
2013-08-13 14:41:00,83.3,73.0,29.95,SW,218,0.0,0.0,71,0.00,,,0.14,weatherlink.com 1.10,2013-08-13 19:41:00,
2013-08-13 14:56:00,83.4,73.0,29.95,NE,42,1.0,4.0,70,0.00,,,0.14,weatherlink.com 1.10,2013-08-13 19:56:00,
2013-08-13 15:11:00,82.3,73.0,29.95,NNE,12,6.0,6.0,74,0.00,,,0.14,weatherlink.com 1.10,2013-08-13 20:11:00,
2013-08-13 15:26:00,74.9,71.0,29.96,NNW,338,6.0,18.0,86,0.08,,,0.22,weatherlink.com 1.10,2013-08-13 20:26:00,
2013-08-13 15:41:00,71.9,69.0,29.99,NNW,340,6.0,15.0,91,0.48,,,0.62,weatherlink.com 1.10,2013-08-13 20:41:00,
2013-08-13 15:56:00,70.5,68.0,29.97,North,360,7.0,11.0,92,0.76,,,0.90,weatherlink.com 1.10,2013-08-13 20:56:00,
2013-08-13 16:11:00,70.1,68.0,29.97,ENE,67,1.0,13.0,94,0.90,,,1.04,weatherlink.com 1.10,2013-08-13 21:11:00,
2013-08-13 16:26:00,70.3,69.0,29.96,NE,37,0.0,9.0,94,0.80,,,1.05,weatherlink.com 1.10,2013-08-13 21:26:00,
2013-08-13 16:41:00,71.7,70.0,29.94,NE,48,3.0,10.0,95,0.41,,,1.05,weatherlink.com 1.10,2013-08-13 21:41:00,
2013-08-13 16:56:00,72.2,70.0,29.93,North,11,0.0,10.0,93,0.13,,,1.05,weatherlink.com 1.10,2013-08-13 21:56:00,
2013-08-13 17:11:00,74.1,71.0,29.93,East,95,0.0,9.0,89,0.01,,,1.05,weatherlink.com 1.10,2013-08-13 22:11:00,
2013-08-13 17:27:00,75.2,71.0,29.93,East,96,3.0,8.0,86,0.00,,,1.05,weatherlink.com 1.10,2013-08-13 22:27:00,
2013-08-13 17:41:00,75.5,71.0,29.95,ESE,121,0.0,2.0,85,0.00,,,1.05,weatherlink.com 1.10,2013-08-13 22:41:00,
2013-08-13 17:56:00,75.7,70.0,29.95,SE,128,0.0,4.0,83,0.00,,,1.05,weatherlink.com 1.10,2013-08-13 22:56:00,
2013-08-13 18:11:00,75.4,70.0,29.95,NNE,28,1.0,2.0,82,0.00,,,1.05,weatherlink.com 1.10,2013-08-13 23:11:00,
2013-08-13 18:26:00,75.4,69.0,29.96,NE,52,0.0,2.0,81,0.00,,,1.05,weatherlink.com 1.10,2013-08-13 23:26:00,
2013-08-13 18:41:00,75.5,70.0,29.96,NNE,16,0.0,2.0,82,0.00,,,1.05,weatherlink.com 1.10,2013-08-13 23:41:00,
2013-08-13 18:56:00,75.5,70.0,29.95,NNE,19,0.0,2.0,83,0.00,,,1.05,weatherlink.com 1.10,2013-08-13 23:56:00,
2013-08-13 19:11:00,74.8,69.0,29.96,North,10,1.0,1.0,83,0.00,,,1.05,weatherlink.com 1.10,2013-08-14 00:11:00,
2013-08-13 19:26:00,74.4,69.0,29.96,North,355,4.0,8.0,84,0.00,,,1.05,weatherlink.com 1.10,2013-08-14 00:26:00,
2013-08-13 19:41:00,74.8,70.0,29.96,NNE,32,0.0,0.0,84,0.00,,,1.05,weatherlink.com 1.10,2013-08-14 00:41:00,
2013-08-13 19:56:00,74.5,70.0,29.97,NNE,32,0.0,0.0,86,0.00,,,1.05,weatherlink.com 1.10,2013-08-14 00:56:00,
2013-08-13 20:11:00,74.0,70.0,29.98,NNE,21,0.0,0.0,86,0.00,,,1.05,weatherlink.com 1.10,2013-08-14 01:11:00,
2013-08-13 20:26:00,73.8,70.0,29.98,North,11,0.0,0.0,87,0.00,,,1.05,weatherlink.com 1.10,2013-08-14 01:26:00,
2013-08-13 20:41:00,73.8,70.0,29.98,North,11,0.0,0.0,88,0.00,,,1.05,weatherlink.com 1.10,2013-08-14 01:41:00,
2013-08-13 20:56:00,73.2,70.0,29.98,North,11,0.0,0.0,88,0.00,,,1.05,weatherlink.com 1.10,2013-08-14 01:56:00,
2013-08-13 21:11:00,72.9,69.0,30.00,North,11,0.0,0.0,88,0.00,,,1.05,weatherlink.com 1.10,2013-08-14 02:11:00,
2013-08-13 21:26:00,72.7,69.0,30.00,North,11,0.0,0.0,89,0.00,,,1.05,weatherlink.com 1.10,2013-08-14 02:26:00,
2013-08-13 21:41:00,72.4,69.0,30.01,North,11,0.0,0.0,89,0.00,,,1.05,weatherlink.com 1.10,2013-08-14 02:41:00,
2013-08-13 21:56:00,72.1,69.0,30.00,North,11,0.0,0.0,89,0.00,,,1.05,weatherlink.com 1.10,2013-08-14 02:56:00,
2013-08-13 22:11:00,71.9,69.0,30.01,North,11,0.0,0.0,90,0.00,,,1.05,weatherlink.com 1.10,2013-08-14 03:11:00,
2013-08-13 22:26:00,71.6,69.0,30.01,North,11,0.0,0.0,90,0.00,,,1.05,weatherlink.com 1.10,2013-08-14 03:26:00,
2013-08-13 22:41:00,71.5,69.0,30.00,North,11,0.0,0.0,91,0.00,,,1.05,weatherlink.com 1.10,2013-08-14 03:41:00,
2013-08-13 22:56:00,71.4,69.0,29.99,North,11,0.0,0.0,91,0.00,,,1.05,weatherlink.com 1.10,2013-08-14 03:56:00,
2013-08-13 23:11:00,71.3,69.0,29.98,North,11,0.0,0.0,92,0.00,,,1.05,weatherlink.com 1.10,2013-08-14 04:11:00,
2013-08-13 23:26:00,71.2,69.0,30.00,North,11,0.0,0.0,92,0.00,,,1.05,weatherlink.com 1.10,2013-08-14 04:26:00,
2013-08-13 23:41:00,71.2,69.0,30.00,North,11,0.0,0.0,92,0.00,,,1.05,weatherlink.com 1.10,2013-08-14 04:41:00,
2013-08-13 23:56:00,71.1,69.0,30.01,North,11,0.0,0.0,93,0.00,,,1.05,weatherlink.com 1.10,2013-08-14 04:56:00,